Left ArrowRight Arrow

Hourly Observations for February 8, 2021

Temp ( °F °C ) Dew Point ( °F °C ) Humidity (%) Winds ( mph kmh ) Pressure ( in mb ) Visibility ( mi km ) Precip ( " mm )
12:06 am 00:06 Cloudy with Light Snow 2 -16.7 -3 -19.4 80 80 ENE 7 11 30.37 1029 1 2 0.00 0.00
12:24 am 00:24 Cloudy with Light Snow 2 -16.7 -3 -19.4 80 80 NNE 9 15 30.39 1029 3 4 0.00 0.00
12:55 am 00:55 Cloudy with Light Snow 2 -16.7 -4 -20 76 76 NNE 13 20 30.33 1027 2 3 0.00 0.00
1:34 am 01:34 Cloudy with Light Snow 1 -17.2 -4 -20 79 79 NE 10 17 30.38 1029 3 4 0.01 0.25
1:41 am 01:41 Cloudy with Haze 1 -17.2 -4 -20 79 79 NE 10 17 30.37 1029 4 6 0.01 0.25
1:55 am 01:55 Cloudy 1 -17.2 -4 -20 79 79 NE 9 15 30.33 1027 8 13 0.01 0.25
2:55 am 02:55 Cloudy with Light Snow 1 -17.2 -4 -20 79 79 NE 8 13 30.34 1027 3 5 0.00 0.00
3:03 am 03:03 Cloudy with Light Snow 1 -17.2 -4 -20 79 79 ENE 8 13 30.37 1029 2 3 0.00 0.00
3:18 am 03:18 Cloudy with Haze 1 -17.2 -4 -20 79 79 ENE 7 11 30.36 1028 4 6 0.00 0.00
3:34 am 03:34 Cloudy with Haze 1 -17.2 -4 -20 79 79 NE 9 15 30.37 1029 4 6 0.00 0.00
3:55 am 03:55 Cloudy with Haze 1 -17.2 -4 -20 79 79 NE 10 17 30.33 1027 4 6 0.00 0.00
4:55 am 04:55 Cloudy 1 -17.2 -4 -20 79 79 ENE 8 13 30.31 1026 10 16 0.00 0.00
5:55 am 05:55 Cloudy 1 -17.2 -4 -20 79 79 NE 9 15 30.32 1027 10 16 0.00 0.00
6:55 am 06:55 Cloudy 1 -17.2 -4 -20 79 79 NE 12 19 30.32 1027 10 16 0.00 0.00
7:40 am 07:40 Cloudy 1 -17.2 -4 -20 79 79 NE 12 19 30.37 1029 9 14 0.00 0.00
7:55 am 07:55 Cloudy with Haze 2 -16.7 -4 -20 76 76 NE 10 17 30.34 1027 6 10 0.00 0.00
8:55 am 08:55 Cloudy with Haze 2 -16.7 -3 -19.4 80 80 NNE 10 17 30.35 1028 2 3 0.00 0.00
9:11 am 09:11 Cloudy with Haze 1 -17 -2 -19 85 85 NE 10 17 30.39 1029 4 6 0.00 0.00
9:55 am 09:55 Cloudy with Haze 3 -16.1 -3 -19.4 76 76 NE 8 13 30.33 1027 6 10 0.00 0.00
10:22 am 10:22 Cloudy with Light Snow 3 -16 -2 -19 78 78 NE 10 17 30.37 1028 3 4 0.00 0.00
10:41 am 10:41 Cloudy with Haze 3 -16.1 -3 -19.4 76 76 ENE 6 9 30.38 1029 4 6 0.01 0.25
10:55 am 10:55 Cloudy with Haze 3 -16.1 -3 -19.4 76 76 NE 8 13 30.35 1028 5 8 0.01 0.25
11:07 am 11:07 Cloudy 4 -15.6 -3 -19.4 73 73 NE 8 13 30.39 1029 7 11 0.00 0.00
11:44 am 11:44 Cloudy with Haze 4 -15.6 -1 -18.3 80 80 NE 8 13 30.38 1029 2 3 0.00 0.00
11:55 am 11:55 Cloudy with Haze 4 -15.6 -1 -18.3 80 80 NNE 8 13 30.34 1027 2 3 0.00 0.00
12:27 pm 12:27 Cloudy with Haze 5 -15 0 -17.8 79 79 NNE 8 13 30.35 1028 1 2 0.00 0.00
12:48 pm 12:48 Cloudy with Haze 5 -15 0 -17.8 79 79 NE 8 13 30.34 1028 3 4 0.00 0.00
12:55 pm 12:55 Cloudy with Haze 6 -14.4 1 -17.2 79 79 NNE 9 15 30.30 1026 2 3 0.00 0.00
1:11 pm 13:11 Cloudy with Haze 6 -14.4 0 -17.8 76 76 NNE 12 19 30.33 1027 3 5 0.00 0.00
1:20 pm 13:20 Cloudy with Haze 5 -15 0 -18 78 78 N 10 17 30.33 1027 3 4 0.00 0.00
1:32 pm 13:32 Cloudy with Haze 6 -14.4 1 -17.2 79 79 NNE 12 19 30.33 1027 2 3 0.00 0.00
1:40 pm 13:40 Cloudy with Haze 6 -14.4 1 -17.2 79 79 N 12 19 30.33 1027 2 2 0.00 0.00
1:55 pm 13:55 Cloudy with Haze 6 -14.4 1 -17.2 79 79 NNE 9 15 30.30 1026 2 3 0.00 0.00
2:07 pm 14:07 Cloudy with Haze 6 -14.4 1 -17.2 79 79 NNE 10 17 30.32 1027 2 2 0.00 0.00
2:46 pm 14:46 Mostly Cloudy with Haze 7 -13.9 2 -16.7 80 80 NNE 9 15 30.32 1027 1 1 0.00 0.00
2:55 pm 14:55 Cloudy with Haze 7 -13.9 2 -16.7 80 80 NNE 13 20 30.29 1026 1 2 0.00 0.00
3:20 pm 15:20 Cloudy with Light Snow 7 -13.9 2 -16.7 80 80 N 13 20 30.32 1027 1 1 0.00 0.00
3:26 pm 15:26 Cloudy with Light Snow 6 -14.4 2 -16.7 83 83 N 13 20 30.32 1027 1 2 0.00 0.00
3:42 pm 15:42 Cloudy with Light Freezing Rain 6 -14.4 2 -16.7 83 83 NNE 13 20 30.33 1027 1 2 0.00 0.00
3:55 pm 15:55 Cloudy with Light Freezing Rain 6 -14.4 2 -16.7 83 83 NE 13 20 30.30 1026 1 2 0.00 0.00
3:59 pm 15:59 Cloudy with Light Freezing Rain 6 -14.4 2 -16.7 83 83 NNE 9 15 30.33 1027 1 1 0.00 0.00
4:02 pm 16:02 Cloudy with Light Snow 6 -14.4 2 -16.7 83 83 NNE 9 15 30.34 1027 1 1 0.00 0.00
4:12 pm 16:12 Cloudy with Light Snow 6 -14.4 2 -16.7 83 83 N 10 17 30.34 1027 1 1 0.01 0.25
4:19 pm 16:19 Cloudy with Light Snow 6 -14.4 2 -16.7 83 83 NNE 9 15 30.34 1027 1 1 0.01 0.25
4:39 pm 16:39 Cloudy with Light Freezing Rain 6 -14.4 1 -17.2 79 79 N 12 19 30.34 1027 1 2 0.01 0.25
4:55 pm 16:55 Cloudy with Light Freezing Rain 6 -14.4 2 -16.7 83 83 NNE 10 17 30.31 1027 1 2 0.01 0.25
5:36 pm 17:36 Cloudy with Light Freezing Rain 6 -14.4 2 -16.7 83 83 NNE 14 22 30.34 1027 1 2 0.00 0.00
5:45 pm 17:45 Cloudy with Light Freezing Rain 5 -15 2 -16.7 87 87 NNE 13 20 30.35 1028 2 3 0.00 0.00
5:55 pm 17:55 Cloudy with Light Freezing Rain 5 -15 1 -17.2 83 83 NNE 13 20 30.32 1027 2 3 0.00 0.00
6:03 pm 18:03 Cloudy with Light Snow 5 -15 2 -16.7 87 87 N 9 15 30.36 1028 1 2 0.00 0.00
6:20 pm 18:20 Cloudy with Mist and Fog 5 -15 1 -17 85 85 NNE 13 20 30.35 1028 2 3 0.00 0.00
6:32 pm 18:32 Cloudy with Light Snow 5 -15 1 -17.2 83 83 N 13 20 30.36 1028 2 3 0.00 0.00
6:42 pm 18:42 Cloudy with Mist and Fog 5 -15 1 -17.2 83 83 NNE 14 22 30.36 1028 2 3 0.00 0.00
6:55 pm 18:55 Cloudy with Light Freezing Rain 5 -15 1 -17.2 83 83 NNE 12 19 30.33 1027 2 3 0.01 0.25
7:22 pm 19:22 Cloudy with Light Freezing Rain 5 -15 1 -17.2 83 83 NNE 9 15 30.37 1029 1 2 0.00 0.00
7:30 pm 19:30 Cloudy with Mist and Fog 5 -15 1 -17.2 83 83 NNE 10 17 30.38 1029 2 3 0.00 0.00
7:43 pm 19:43 Cloudy with Mist and Fog 5 -15 1 -17.2 83 83 NNE 10 17 30.38 1029 3 4 0.00 0.00
7:55 pm 19:55 Cloudy with Mist and Fog 5 -15 1 -17.2 83 83 NNE 12 19 30.35 1028 2 3 0.00 0.00
8:07 pm 20:07 Cloudy with Mist and Fog 5 -15 1 -17.2 83 83 NNE 10 17 30.38 1029 2 3 0.00 0.00
8:52 pm 20:52 Cloudy with Mist and Fog 5 -15 1 -17 85 85 N 12 19 30.39 1029 3 5 0.00 0.00
8:55 pm 20:55 Cloudy with Mist and Fog 5 -15 1 -17.2 83 83 NNE 10 17 30.36 1028 3 5 0.00 0.00
9:33 pm 21:33 Cloudy 4 -15.6 0 -17.8 83 83 NNE 13 20 30.42 1030 8 13 0.00 0.00
9:55 pm 21:55 Cloudy 5 -15 0 -17.8 79 79 NNE 9 15 30.38 1029 10 16 0.00 0.00
10:55 pm 22:55 Cloudy 5 -15 0 -17.8 79 79 NNE 10 17 30.38 1029 10 16 0.00 0.00
11:55 pm 23:55 Cloudy 5 -15 0 -17.8 79 79 NE 12 19 30.37 1028 10 16 0.00 0.00

Powered by Vaisala Xweather